Temperature
20 21 20 21 20 20 20 20 20 20 20 20 20 20 19 19 19 19 19 19 19 19 18 18 18 18 18 18 18 18 18 18 18 18 18 18 17 17 17 17 17 17 17
21 21 21 21 20 20 20 20 20 20 20 20 20 19 19 19 19 19 19 19 19 18 18 18 18 18 18 18 18 18 18 18 18 18 17 17 17 17 18 18 18 17 17
21 21 21 21 20 20 20 20 20 20 20 20 19 19 19 19 19 19 19 19 19 19 19 19 18 18 18 18 18 18 17 17 18 18 17 17 17 17 17 17 17 17 17
22 21 21 21 20 20 20 20 20 20 20 20 19 19 19 19 19 19 19 19 19 19 19 19 18 18 18 18 18 17 17 17 17 17 18 18 17 17 17 17 17 17 17
22 21 21 21 20 20 20 20 20 20 19 19 19 19 19 19 19 19 19 19 19 19 19 19 18 18 18 18 17 17 17 17 17 17 18 18 18 17 17 17 17 17 17
21 21 21 21 20 20 20 20 20 19 19 19 19 19 19 19 19 19 19 19 19 19 19 19 18 18 18 18 17 17 17 17 17 17 18 18 18 18 17 17 17 17 17
21 21 21 20 20 20 20 20 20 19 19 19 19 19 19 19 19 19 19 19 19 19 19 19 18 18 18 18 17 17 17 17 17 17 18 18 18 18 18 17 17 17 17
22 21 20 20 20 20 20 20 20 19 19 19 19 19 19 19 19 19 19 19 19 19 19 19 18 18 18 18 17 17 17 17 17 18 18 18 18 18 18 17 17 17 17
21 21 20 20 20 20 20 20 20 19 19 19 19 19 19 19 19 19 19 19 19 19 19 19 18 18 18 18 18 17 17 17 18 18 18 18 18 18 18 18 17 17 17
21 21 20 20 20 20 20 20 19 19 19 19 19 19 19 19 19 19 19 19 19 19 19 19 18 18 18 18 18 18 17 17 18 18 18 18 18 18 18 18 17 17 17
20 20 20 20 20 20 20 19 19 19 19 19 19 19 18 18 18 18 18 18 18 18 18 19 18 18 18 18 18 18 18 18 18 18 18 18 18 18 18 18 17 17 17
20 20 20 20 20 20 20 19 19 19 19 19 19 18 18 18 18 18 18 18 18 18 18 18 18 18 18 18 18 18 18 18 18 18 18 18 18 18 18 18 17 17 17
20 20 20 20 20 20 19 19 19 19 19 19 18 18 18 18 18 18 18 18 18 18 18 18 18 18 18 18 18 18 18 18 18 18 18 18 18 18 18 18 18 17 17
20 20 20 20 20 19 19 19 19 19 19 18 18 18 18 18 18 18 18 18 18 18 18 18 18 18 18 18 18 18 18 18 18 18 18 17 17 17 18 18 18 17 17
20 19 19 19 19 19 19 19 19 19 19 18 18 18 18 18 18 18 18 18 17 17 17 17 17 17 17 17 17 17 17 17 18 17 17 17 17 17 17 17 17 17 17
19 19 19 19 19 19 19 19 19 19 18 18 18 18 18 18 18 18 18 17 17 17 17 17 17 17 17 17 17 17 17 17 17 17 17 17 17 17 17 17 17 17 17
19 19 19 19 19 19 19 19 19 18 18 18 18 18 18 18 18 18 18 17 17 17 17 17 17 17 17 17 17 17 17 17 17 17 17 17 17 17 17 17 17 17 17
19 19 19 18 19 19 19 18 18 18 18 18 18 18 18 18 18 17 17 17 17 17 17 17 17 17 17 17 17 17 17 17 17 17 17 17 17 17 17 16 16 16 16
19 19 19 18 18 19 19 18 18 18 18 18 18 18 18 18 18 17 17 17 17 17 17 16 16 17 16 16 17 17 17 17 17 17 17 17 17 17 17 16 16 16 16
19 19 19 18 19 19 18 18 18 18 18 18 18 18 18 18 17 17 17 17 17 17 16 16 16 16 16 16 17 17 17 17 17 17 17 16 16 16 16 16 16 16 16
18 18 18 18 18 19 18 18 18 18 18 18 18 18 18 17 17 17 17 17 16 16 16 16 16 16 16 16 16 17 17 17 17 17 17 17 17 16 16 16 16 16 16
18 18 18 18 18 18 18 18 18 18 18 18 18 17 17 17 17 17 16 16 16 16 16 16 16 16 16 16 16 17 17 17 17 16 16 16 16 16 16 16 16 16 16
18 18 18 18 18 18 18 18 18 18 18 17 17 17 17 17 17 17 16 16 16 16 16 16 16 16 16 16 16 16 16 16 16 16 16 16 16 16 16 16 16 16 16
18 18 18 18 18 18 18 18 18 18 18 18 18 17 17 17 17 16 16 16 16 16 16 16 15 15 16 16 16 16 16 16 16 16 16 16 16 16 16 16 16 16 16
18 18 18 18 18 18 18 18 18 18 18 18 17 17 17 17 16 16 16 16 16 16 15 15 15 15 15 15 15 15 16 16 16 16 16 16 16 16 16 16 16 16 15
18 18 18 18 18 18 18 18 18 18 18 17 17 17 17 16 16 16 16 16 16 15 15 15 15 15 15 15 15 15 15 15 15 15 15 15 15 15 15 15 15 15 15
Wind_Speed
11 15 22 22 22 22 21 21 20 20 21 21 20 20 20 20 19 19 18 17 17 16 15 15 15 15 15 16 16 17 17 18 19 19 19 18 18 18 19 19 18 17 19
15 20 23 23 22 22 21 21 20 20 20 20 20 19 19 19 18 18 17 17 16 16 15 15 15 15 15 15 15 16 16 17 18 18 18 17 17 18 18 18 17 16 18
19 20 23 24 23 22 22 21 20 20 20 19 19 18 18 18 17 17 17 16 16 16 15 15 14 14 14 14 14 14 14 15 16 17 16 15 16 18 18 18 18 18 17
19 20 22 25 24 23 22 21 20 20 19 19 18 18 18 17 17 17 16 16 16 15 15 14 14 13 13 13 13 12 12 12 13 14 13 13 15 17 18 17 17 17 16
17 19 23 25 24 23 22 21 20 20 19 19 18 17 17 17 17 16 16 16 15 15 14 14 13 12 12 11 11 10 9 9 11 13 13 14 15 17 17 16 16 16 15
15 19 23 25 24 24 22 21 20 20 19 18 18 17 17 16 16 16 15 15 15 14 13 12 12 11 10 9 9 9 8 9 12 13 13 14 14 16 16 16 16 15 15
16 17 22 25 24 24 22 21 21 20 19 18 18 17 17 16 16 15 15 14 14 13 12 11 10 9 8 8 8 8 9 11 12 12 13 13 15 16 16 16 15 15 14
18 16 21 24 24 23 22 22 21 20 19 18 18 17 17 16 15 15 14 14 13 13 11 10 9 8 7 6 7 8 9 11 12 13 13 13 16 16 15 15 15 14 14
16 15 15 20 22 23 23 22 21 20 19 18 18 17 16 16 15 14 14 13 12 12 11 10 8 6 5 5 5 7 8 11 12 12 12 12 15 16 15 15 15 14 14
14 13 12 15 17 18 19 21 20 20 19 18 17 17 16 15 14 14 13 12 12 11 10 9 7 5 3 2 3 5 8 10 10 11 11 13 16 16 15 15 14 14 14
15 12 12 11 13 15 16 19 19 19 18 17 16 16 15 13 13 13 12 12 11 10 9 8 6 4 2 1 0 2 5 7 9 9 11 14 16 16 16 15 14 14 14
16 14 13 12 12 14 15 15 14 14 15 14 13 14 12 12 12 11 12 12 11 10 8 7 5 4 2 1 2 1 4 6 8 9 11 15 16 16 16 15 15 14 14
16 15 14 13 12 11 9 12 10 10 11 11 12 13 11 10 9 9 9 9 9 8 6 5 4 3 2 1 0 2 5 6 7 8 11 15 16 16 16 16 15 15 15
14 14 13 13 11 10 10 9 9 8 8 8 11 12 10 7 6 7 7 7 6 6 5 4 3 3 2 2 2 3 5 5 6 8 11 15 16 16 16 16 15 15 15
13 13 13 12 12 10 8 7 8 7 8 9 10 12 12 7 5 6 5 6 6 6 6 4 3 2 1 1 2 3 3 5 8 9 10 14 16 16 16 16 16 15 15
13 13 13 12 11 10 8 7 6 7 9 9 9 11 13 10 7 5 4 4 5 6 6 5 3 2 1 1 1 2 3 4 7 9 11 13 15 16 16 16 16 16 16
13 12 12 12 11 11 10 8 7 8 9 7 8 11 12 11 10 7 4 3 4 6 6 4 3 2 1 1 0 1 2 3 5 8 10 11 13 15 16 16 16 16 16
11 12 13 13 11 11 9 7 7 9 9 8 10 10 11 11 11 8 4 3 5 6 5 3 3 2 2 1 0 1 1 2 4 6 8 9 10 10 13 15 15 16 16
12 13 13 12 12 11 9 7 7 8 7 8 9 9 10 11 12 9 5 4 7 5 3 3 3 2 1 0 1 2 2 2 2 4 4 7 9 10 11 12 14 15 15
11 11 12 11 11 10 9 7 6 6 5 6 7 8 10 10 11 9 6 5 6 4 3 3 3 2 1 0 1 1 2 2 1 2 3 4 6 8 9 9 10 12 14
11 11 11 11 10 9 8 7 7 6 5 5 5 9 10 10 10 8 5 5 4 4 4 3 2 2 2 1 2 3 4 2 1 1 1 1 2 4 7 8 8 8 8
12 12 12 12 10 9 8 6 5 6 5 5 4 6 9 10 10 8 6 5 4 4 4 3 3 2 2 2 2 3 3 5 4 2 1 0 1 1 2 5 7 7 7
11 12 13 12 11 9 9 7 6 5 4 3 4 4 5 9 9 9 8 6 4 4 4 3 3 4 2 2 2 3 3 1 2 4 3 2 1 0 0 1 4 6 7
13 12 11 11 10 9 9 9 10 7 6 6 5 5 4 7 9 10 9 7 5 4 4 3 3 3 3 2 2 2 2 3 3 1 4 3 3 1 1 1 1 3 5
12 13 12 12 11 10 9 10 10 7 5 5 5 6 5 4 7 9 9 7 5 4 4 4 4 3 3 3 1 1 3 3 3 3 1 4 4 3 2 1 1 2 4
10 11 12 11 10 10 10 10 10 10 8 8 7 7 5 4 4 6 8 7 6 5 5 4 4 4 3 3 2 2 2 2 1 2 2 1 3 4 3 2 1 2 4
Wind_Direction
151 151 144 136 131 126 122 119 115 112 110 108 106 106 105 106 106 107 108 109 108 107 106 103 102 101 102 103 104 105 106 107 108 109 109 111 113 113 112 110 108 107 109
149 151 145 139 135 131 127 124 122 119 116 113 112 111 111 110 111 111 111 111 110 109 107 105 104 103 103 104 105 106 107 108 107 107 107 109 113 114 113 112 111 112 111
144 148 144 141 138 135 132 129 127 125 122 120 118 117 116 115 114 115 114 113 112 110 109 108 107 105 105 105 105 106 108 110 110 108 106 105 111 115 115 115 114 113 113
143 146 145 142 140 137 136 134 132 130 128 126 124 122 121 120 118 117 116 114 113 112 111 110 109 108 106 104 103 104 107 112 115 115 111 111 113 117 117 117 116 116 115
142 146 147 145 142 141 140 139 137 135 133 131 130 127 126 125 123 121 119 118 116 115 113 112 111 109 107 105 104 104 107 115 119 117 114 113 116 120 120 120 120 119 118
142 146 148 146 145 144 143 143 141 140 138 137 135 132 131 130 128 126 124 122 121 119 118 116 114 111 107 103 99 95 98 116 120 119 122 121 123 125 124 124 123 122 122
142 146 148 148 147 147 147 146 145 145 144 142 140 137 135 134 132 130 129 127 125 124 123 122 119 115 109 97 85 85 90 117 126 126 130 130 132 131 130 129 128 126 125
144 145 149 150 150 150 150 149 149 149 148 146 144 142 141 139 137 136 135 135 133 131 129 127 126 123 113 96 79 78 85 116 131 133 135 137 140 138 136 135 134 133 131
144 145 148 152 152 153 153 152 152 152 152 151 149 147 146 145 144 143 143 143 141 139 138 136 135 132 120 98 80 74 86 112 131 138 143 146 147 145 143 142 141 140 138
145 147 148 151 152 153 155 155 156 156 156 156 155 154 153 153 153 151 151 150 149 149 149 147 147 145 135 99 77 82 96 117 135 147 150 158 156 153 151 150 149 148 147
152 152 151 152 154 153 155 159 160 160 161 160 160 161 159 158 159 160 160 160 160 161 161 160 161 167 180 244 319 108 114 134 145 155 162 167 164 161 160 159 158 157 156
161 161 160 158 159 159 162 158 162 162 164 165 166 165 165 166 169 171 173 172 172 172 171 173 180 193 208 276 304 113 136 148 160 167 172 174 172 169 167 167 167 166 165
163 165 166 165 166 167 160 159 163 164 166 170 173 174 172 174 179 174 173 176 178 178 175 179 180 191 180 196 164 126 145 147 166 175 180 181 180 176 175 176 177 176 175
165 169 168 168 170 168 161 164 166 166 172 176 182 180 170 163 162 164 168 174 177 178 174 170 167 167 152 147 134 139 148 151 175 176 190 190 188 185 184 185 186 186 185
168 170 169 169 169 163 157 167 167 168 172 174 170 169 163 157 157 161 167 171 177 175 169 166 164 159 141 128 131 140 141 152 172 181 197 199 196 193 193 192 193 194 193
167 166 162 163 163 157 158 160 160 165 164 158 153 156 154 153 154 150 149 156 162 166 165 160 157 148 146 142 140 156 163 162 168 186 199 204 203 200 200 199 200 201 201
167 162 157 160 159 156 155 157 155 154 149 147 148 149 151 150 148 144 138 140 151 150 135 116 105 101 102 120 209 210 186 185 179 192 196 203 208 209 207 207 208 208 208
162 158 159 159 158 153 148 145 147 147 146 150 149 148 147 144 144 137 131 135 137 128 120 112 95 83 67 74 257 260 224 209 207 206 199 202 205 210 215 217 217 215 214
161 158 159 156 161 152 146 143 141 142 144 150 148 144 143 140 142 138 132 130 123 112 112 119 97 108 91 353 277 265 257 237 239 223 208 207 207 211 215 221 222 221 221
159 157 159 160 159 149 142 134 129 131 140 145 145 146 143 138 140 135 130 128 121 110 104 100 99 84 99 272 319 341 310 275 231 213 207 208 206 209 212 215 223 228 227
158 158 156 159 161 152 146 145 144 148 152 150 154 151 144 141 141 136 133 130 125 124 129 119 101 71 29 28 46 6 352 357 28 228 207 181 199 204 200 205 212 221 231
165 159 156 161 166 160 154 153 151 146 151 153 149 149 149 147 147 143 137 140 137 125 112 98 92 89 23 48 103 76 20 3 355 357 359 162 199 166 183 198 201 212 225
171 170 167 168 168 162 153 143 131 113 107 124 145 156 161 152 147 143 147 143 140 135 136 126 115 116 86 20 74 129 125 195 317 338 354 3 347 52 350 204 198 212 215
180 174 164 165 167 163 156 152 152 154 160 175 168 168 164 154 152 151 151 144 140 136 141 142 125 122 114 69 20 42 131 154 135 352 336 341 340 353 319 274 192 193 194
178 173 167 167 168 167 163 161 159 158 166 158 153 158 161 156 158 155 151 144 142 142 145 136 124 117 119 123 107 70 61 60 84 123 324 329 339 329 313 275 219 187 181
172 170 165 168 171 171 166 165 165 166 166 160 164 168 168 162 157 155 151 148 148 147 150 151 146 135 132 125 120 115 122 112 116 123 151 293 310 307 323 326 265 198 188
Height
1526 1528 1531 1533 1534 1535 1536 1538 1539 1540 1541 1542 1543 1544 1545 1546 1547 1548 1549 1550 1550 1551 1552 1552 1553 1553 1554 1555 1556 1556 1557 1557 1558 1558 1559 1560 1560 1561 1561 1562 1562 1562 1563
1523 1528 1531 1533 1535 1536 1537 1539 1540 1541 1542 1543 1544 1545 1546 1547 1548 1549 1550 1551 1552 1552 1553 1554 1554 1555 1555 1556 1557 1558 1559 1560 1560 1561 1561 1562 1562 1563 1563 1564 1564 1565 1565
1523 1527 1531 1533 1535 1537 1538 1540 1541 1542 1543 1544 1545 1546 1547 1548 1549 1550 1551 1552 1553 1553 1554 1555 1556 1556 1557 1558 1559 1560 1561 1561 1562 1563 1563 1564 1564 1565 1565 1566 1567 1567 1568
1523 1527 1531 1533 1535 1537 1539 1541 1542 1543 1544 1545 1546 1547 1548 1549 1550 1551 1552 1553 1554 1555 1555 1556 1557 1558 1559 1560 1561 1562 1562 1563 1564 1565 1565 1566 1566 1567 1567 1568 1568 1569 1570
1524 1527 1531 1534 1536 1538 1540 1541 1543 1544 1545 1546 1547 1548 1549 1551 1552 1552 1553 1554 1555 1556 1557 1558 1559 1560 1561 1562 1563 1564 1564 1565 1566 1566 1567 1567 1568 1568 1569 1569 1570 1571 1571
1524 1528 1531 1533 1536 1538 1540 1541 1543 1544 1546 1547 1548 1549 1550 1552 1553 1554 1555 1555 1556 1557 1558 1559 1560 1562 1563 1564 1565 1565 1566 1566 1567 1568 1568 1569 1569 1570 1570 1571 1572 1572 1573
1523 1528 1531 1534 1536 1538 1540 1542 1543 1545 1546 1547 1549 1550 1551 1553 1554 1555 1556 1557 1558 1559 1560 1561 1562 1563 1564 1565 1566 1567 1567 1568 1568 1569 1570 1570 1571 1571 1572 1572 1573 1574 1574
1523 1527 1530 1533 1536 1538 1540 1542 1543 1545 1547 1548 1549 1551 1552 1553 1555 1556 1557 1558 1559 1560 1561 1562 1563 1564 1566 1567 1568 1568 1569 1569 1570 1570 1571 1571 1572 1573 1573 1574 1574 1575 1576
1524 1527 1530 1533 1535 1538 1540 1542 1544 1545 1547 1548 1550 1551 1553 1554 1555 1556 1558 1559 1560 1561 1562 1563 1564 1566 1567 1568 1569 1569 1570 1570 1571 1571 1572 1572 1573 1574 1574 1575 1575 1576 1577
1523 1526 1529 1532 1535 1537 1540 1542 1544 1546 1547 1549 1550 1552 1553 1554 1556 1557 1558 1560 1561 1562 1563 1564 1565 1567 1568 1569 1569 1570 1570 1571 1571 1572 1572 1573 1573 1574 1575 1576 1576 1577 1578
1523 1525 1528 1531 1535 1537 1539 1541 1544 1546 1547 1549 1550 1552 1553 1555 1556 1557 1559 1560 1561 1562 1563 1565 1566 1567 1568 1569 1570 1570 1571 1571 1572 1572 1573 1573 1574 1574 1575 1576 1577 1578 1578
1519 1523 1527 1530 1533 1537 1539 1541 1543 1545 1547 1549 1550 1552 1553 1555 1556 1557 1559 1560 1561 1562 1563 1565 1566 1567 1568 1569 1569 1570 1571 1571 1572 1572 1573 1573 1574 1575 1575 1576 1577 1578 1579
1517 1521 1525 1529 1532 1535 1538 1540 1542 1545 1547 1549 1550 1552 1553 1554 1556 1557 1558 1560 1561 1562 1563 1564 1565 1566 1567 1569 1569 1570 1570 1571 1572 1572 1573 1574 1574 1575 1575 1576 1577 1578 1579
1516 1519 1524 1527 1530 1534 1537 1539 1542 1544 1546 1548 1550 1551 1552 1554 1555 1557 1558 1559 1561 1562 1563 1564 1565 1566 1567 1568 1569 1569 1570 1571 1571 1572 1573 1573 1574 1575 1575 1576 1576 1577 1579
1514 1518 1522 1525 1529 1532 1535 1538 1541 1543 1545 1548 1549 1550 1552 1553 1555 1556 1557 1559 1560 1561 1562 1563 1564 1566 1567 1567 1568 1569 1569 1570 1571 1571 1571 1573 1573 1574 1574 1575 1576 1577 1578
1512 1516 1520 1523 1527 1531 1534 1537 1540 1543 1545 1547 1549 1550 1551 1553 1554 1555 1557 1558 1559 1560 1561 1563 1564 1564 1565 1566 1567 1567 1568 1569 1569 1570 1570 1571 1572 1573 1574 1574 1575 1576 1577
1510 1514 1517 1521 1525 1529 1533 1536 1539 1542 1544 1546 1548 1549 1551 1552 1553 1555 1556 1557 1558 1559 1560 1562 1562 1563 1564 1565 1565 1566 1567 1568 1568 1569 1569 1570 1571 1572 1572 1573 1574 1574 1575
1508 1511 1516 1520 1523 1528 1531 1534 1537 1540 1543 1545 1547 1548 1550 1551 1553 1554 1555 1556 1557 1558 1560 1561 1561 1562 1563 1563 1564 1565 1566 1566 1567 1568 1568 1569 1570 1570 1571 1572 1572 1573 1573
1506 1509 1513 1518 1522 1526 1530 1533 1536 1539 1542 1544 1546 1547 1548 1550 1552 1553 1554 1555 1557 1558 1559 1560 1560 1561 1562 1562 1563 1564 1564 1565 1565 1566 1567 1568 1569 1569 1570 1570 1571 1571 1572
1505 1508 1512 1516 1520 1524 1528 1532 1535 1538 1541 1543 1544 1546 1547 1549 1550 1552 1553 1555 1556 1557 1558 1559 1559 1560 1560 1561 1562 1562 1563 1564 1564 1565 1566 1567 1567 1568 1568 1569 1569 1570 1570
1503 1506 1509 1513 1517 1521 1525 1528 1532 1535 1538 1541 1543 1545 1546 1548 1549 1551 1552 1554 1555 1556 1557 1557 1558 1559 1559 1560 1561 1561 1562 1563 1564 1565 1565 1566 1566 1567 1567 1567 1568 1568 1568
1501 1504 1508 1510 1515 1519 1523 1527 1531 1534 1537 1540 1542 1544 1545 1547 1548 1550 1552 1553 1554 1555 1556 1556 1557 1558 1558 1559 1560 1560 1561 1563 1563 1564 1564 1565 1565 1566 1566 1566 1566 1566 1567
1500 1503 1506 1508 1513 1517 1521 1525 1529 1532 1535 1538 1540 1542 1544 1546 1547 1549 1551 1552 1553 1554 1555 1556 1556 1557 1558 1559 1559 1560 1560 1561 1562 1563 1563 1564 1564 1564 1565 1565 1565 1565 1565
1498 1501 1505 1508 1511 1515 1519 1522 1525 1528 1532 1535 1538 1541 1543 1545 1546 1548 1550 1551 1552 1553 1554 1555 1556 1557 1557 1558 1559 1559 1560 1560 1561 1562 1563 1563 1563 1563 1563 1563 1563 1563 1563
1497 1500 1503 1506 1510 1514 1517 1520 1524 1527 1531 1534 1537 1539 1541 1544 1546 1547 1549 1550 1551 1552 1553 1554 1555 1556 1557 1557 1558 1559 1559 1560 1560 1561 1561 1562 1562 1562 1562 1562 1562 1562 1562
1496 1499 1501 1504 1507 1512 1516 1519 1522 1525 1529 1532 1535 1537 1540 1542 1544 1546 1548 1549 1550 1551 1552 1553 1554 1555 1556 1557 1557 1558 1558 1559 1559 1560 1560 1560 1560 1561 1561 1561 1561 1561 1561